Regional Weather Roundup
Issued by NWS

Home | Current Version | Previous Version | Graphics & Text | Print | Product List | Glossary On
Versions: 1 2 3 4 5 6 7 8 9 10 11 12 13 14 15 16 17 18 19 20 21 22 23 24 25 26 27 28 29 30 31 32 33 34 35 36 37 38 39 40 41 42 43 44 45 46 47 48 49 50
000
ASUS43 KLOT 020610
RWRIL

ILLINOIS REGIONAL WEATHER ROUNDUP
NATIONAL WEATHER SERVICE CHICAGO/ROMEOVILLE IL
100 AM CDT TUE SEP 02 2014

NOTE: "FAIR" INDICATES FEW OR NO CLOUDS BELOW 12,000 FEET WITH NO
SIGNIFICANT WEATHER AND/OR OBSTRUCTIONS TO VISIBILITY.

* THESE STATIONS ARE NOT UNDER NWS QUALITY CONTROL. THEY ALSO MAY NOT
  REPORT WEATHER SUCH AS PRECIPITATION OR FOG.

ILZ001-002-007-009-015-016-024-020700-
NORTHWEST ILLINOIS

CITY           SKY/WX    TMP DP  RH WIND       PRES   REMARKS
MOLINE         FAIR      69  67  93 W3        29.86S
6HR MIN TEMP:  69; 6HR MAX TEMP:  77; 6HR PCP: TRACE;

STERLING*      FAIR      70  64  83 N3        29.85F
SAVANNA*       FAIR      67  65  93 CALM      29.86S FOG
$$

ILZ003-004-008-010-011-017-018-020700-
NORTH CENTRAL ILLINOIS

CITY           SKY/WX    TMP DP  RH WIND       PRES   REMARKS
ROCKFORD       MOCLDY    68  65  90 CALM      29.86F
6HR MIN TEMP:  68; 6HR MAX TEMP:  74; 6HR PCP:  0.03;

FREEPORT*      FAIR      65  64  95 W5        29.89S
ROCHELLE*      FAIR      67  65  94 CALM      29.85F
DE KALB*       FAIR      66  64  93 SE6       29.85F
PERU*          FAIR      70  67  89 S6        29.87S
$$

ILZ005-006-012>014-019>023-020700-
NORTHEAST ILLINOIS

CITY           SKY/WX    TMP DP  RH WIND       PRES   REMARKS
CHICAGO-OHARE  MOCLDY    71  65  81 SW3       29.86S
6HR MIN TEMP:  70; 6HR MAX TEMP:  79; 6HR PCP:  0.26;

CHICAGO-MIDWAY CLOUDY    75  68  78 SW7       29.87R
6HR MIN TEMP:  75; 6HR MAX TEMP:  81;

AURORA         FAIR      69  66  90 SW6       29.88R
6HR MIN TEMP:  69; 6HR MAX TEMP:  78; 6HR PCP: TRACE;

LANSING*         N/A    N/A N/A N/A MISG        N/A
JOLIET*        FAIR      70  65  83 CALM      29.88F
WAUKEGAN       FAIR      67  65  93 SW3       29.85R
6HR MIN TEMP:  67; 6HR MAX TEMP:  77; 6HR PCP: TRACE;

DUPAGE AIRPORT FAIR      69  66  90 S3        29.86F
6HR MIN TEMP:  68; 6HR MAX TEMP:  78; 6HR PCP:  0.05;

KANKAKEE*      FAIR      69  67  90 CALM      29.88F
WHEELING       FAIR      72  67  84 W3        29.87F
6HR MIN TEMP:  71; 6HR MAX TEMP:  80; 6HR PCP:  0.06;

MORRIS*        FAIR      70  67  90 W5        29.87F
ROMEOVILLE*    MOCLDY    70  67  90 SW6       29.87F
NORTHERLY ISL    N/A     75  66  73 W7          N/A
$$

LMZ740>746-020700-
SOUTHERN LAKE MICHIGAN

STATION/POSITION SKY/WX   TEMP    WIND        PRES    VSBY  WAVE
                          AIR SEA DIR/SP/G                  HT/PER
                          (F)     (DEG/KT/KT) (MB)    (MI)  (FT/S)
SOUTHERN BUOY              71 70  250/  8/  8 1010.4R         1/ 3
WAUKEGAN HARBOR            69     250/  8/ 11   N/A
HARRISON CRIB              74     260/ 13/ 15   N/A
BURNHAM HARBOR             74     270/  6/  9   N/A
CALUMET HARBOR             73     230/  5/ 10 1010.4R
MICHIGAN CITY              73     200/ 12/ 14   N/A
MICHIGAN CITY 6N           73 72  240/ 12/ 16   N/A           2/ 3
ST. JOSEPH                 73 72  230/ 12/ 17   N/A           3/ 4
$$

ILZ025>027-034>036-040-047-049-050-058-095>099-020700-
WEST-CENTRAL ILLINOIS

CITY           SKY/WX    TMP DP  RH WIND       PRES   REMARKS
QUINCY         MOCLDY    70  68  93 S7        29.90R
GALESBURG*     FAIR      69  67  95 CALM      29.86F
MACOMB*        FAIR      67  65  96 S6        29.89F
JACKSONVILLE*  MOCLDY    72  71  96 SW7       29.94R
PITTSFIELD*    RAIN      71  69  92 S8        29.91S
$$

ILZ028>032-037-038-041>044-048-051>054-059>061-020700-
CENTRAL ILLINOIS

CITY           SKY/WX    TMP DP  RH WIND       PRES   REMARKS
PONTIAC        FAIR      72  70  94 CALM      29.87F
DECATUR        LGT RAIN  70  68  93 S13       29.94S
PEORIA         FAIR      72  66  81 SW5       29.89R
6HR MIN TEMP:  71; 6HR MAX TEMP:  79;

LACON*         MOCLDY    71  66  85 CALM      29.87S
LINCOLN*       MOCLDY    72  69  92 SW3       29.88R
SPRINGFIELD    MOCLDY    71  69  93 CALM      29.89S
6HR MIN TEMP:  71; 6HR MAX TEMP:  79; 6HR PCP:  0.19;

TAYLORVILLE    RAIN      68  68 100 CALM      29.92S
$$

ILZ033-039-045-046-055>057-062-063-020700-
EAST-CENTRAL ILLINOIS

CITY           SKY/WX    TMP DP  RH WIND       PRES   REMARKS
CHAMPAIGN      RAIN      70  69  97 S14       29.94R
DANVILLE*      HVY RAIN  69  68  96 SW12      29.93R
RANTOUL*       MOCLDY    72  68  87 S6        29.93R
MATTOON        LGT RAIN  69  68  96 S6        29.94F
PARIS*         TSTM      69  67  95 S8        29.96F
$$

ILZ079-100>102-020700-
SOUTHWEST ILLINOIS

CITY           SKY/WX    TMP DP  RH WIND       PRES   REMARKS
BELLEVILLE     TSTM      68  68 100 W1        29.93R VSB 3/4
CAHOKIA*       RAIN      69  68  96 SE6       29.92R FOG
SPARTA*        MOCLDY    77  73  86 SW9       29.92R
$$

ILZ064>066-069>071-074>076-080>082-084>086-088>090-092>094-020700-
SOUTH-CENTRAL ILLINOIS

CITY           SKY/WX    TMP DP  RH WIND       PRES   REMARKS
CARBONDALE     FAIR      77  72  84 S9        29.93R
6HR MIN TEMP:  75; 6HR MAX TEMP:  79; 6HR PCP: TRACE;

CAIRO*         FAIR      79  72  80 S5        29.96R HX  81
EFFINGHAM*     TSTM      69  67  91 CALM      29.96R
MARION         MOCLDY    79  73  83 S10       29.94S HX  82
MT. VERNON     MOCLDY    77  70  78 S8        29.90F
CENTRALIA*     CLOUDY    72  68  88 N16       29.92S
SALEM*         CLOUDY    71  69  94 NE12G23   29.93S
METROPOLIS*    FAIR      78  73  82 S5        29.95S HX  81
$$

ILZ067-068-072-073-078-083-087-091-020700-
SOUTHEAST ILLINOIS

CITY           SKY/WX    TMP DP  RH WIND       PRES   REMARKS
LAWRENCEVILLE  CLOUDY    76  73  91 S10       29.92S
FLORA*         TSTM      72  70  93 NW9G17    29.94R
FAIRFIELD*     MOCLDY    79  75  89 S6        29.92F HX  82
HARRISBURG*    FAIR      77  73  88 S7        29.96R
ROBINSON*      TSTM      72  71  96 N22G30    29.92F
CARMI*         FAIR      76  74  93 S6        29.94R
$$

ABBREVIATIONS USED IN REMARKS
   TC - TEMPERATURE IN CELSIUS
  WCI - WIND CHILL INDEX
   HX - HEAT INDEX
  VSB - VISIBILITY
$$



USA.gov is the U.S. government's official web portal to all federal, state and local government web resources and services.